Regional Weather Roundup
Issued by NWS

Home | Current Version | Previous Version | Text Only | Print | Product List | Glossary On
Versions: 1 2 3 4 5 6 7 8 9 10 11 12 13 14 15 16 17 18 19 20 21 22 23 24 25 26 27
000
ASUS42 KTBW 220316
RWRFL
FLORIDA REGIONAL WEATHER ROUNDUP
NATIONAL WEATHER SERVICE TAMPA BAY RUSKIN FL
1100 PM EDT SAT OCT 21 2017

NOTE: "FAIR" INDICATES FEW OR NO CLOUDS BELOW 12,000 FEET WITH NO
SIGNIFICANT WEATHER AND/OR OBSTRUCTIONS TO VISIBILITY.

FLZ001>010-012>015-112-114-115-220400-
PANHANDLE FLORIDA

CITY           SKY/WX    TMP DP  RH WIND       PRES   REMARKS
PENSACOLA      PTCLDY    77  68  73 E6        30.13S
PENSACOLA NAS  PTCLDY    78  66  66 E12       30.13R
MILTON NAS     PTCLDY    69  69 100 E5        30.15
CRESTVIEW      PTCLDY    67  65  93 E3        30.17S
DUKE FIELD     FAIR      68  66  95 E3          N/A
VALPARAISO     PTCLDY    74  66  75 NE5       30.14S
PANAMA CITY    FAIR      71  65  81 NE7       30.14F
TYNDALL AFB    PTCLDY    74  65  73 E7        30.15S
APALACHICOLA   MOCLDY    78  68  71 E10G18    30.15R

STATION/POSITION SKY/WX   TEMP    WIND        PRES    WAVE   SWELL
                          AIR SEA DIR/SP/G            HT/PER HT/PER
                          (F)     (DEG/KT/KT) (MB)    (FT/S) (FT/S)
30.1N   87.6W                 79  150/ 19/ 23 1019.4R   7/ 7   2/13
29.2N   88.2W              80 81  100/ 19/ 25 1018.8R   8/ 8
28.8N   86.0W              81 81   90/ 19/ 23 1018.7S   6/ 6
PANAMA CITY BEAC           76 78   90/ 10/ 12 1021.3F
TOWER C                    79     100/ 24/ 26 1021.1R
28.5N   84.5W              81 80  100/ 21/ 25 1019.2R   5/ 7

$$
FLZ011-016>038-118-127-128-134-139-239-220400-
NORTH FLORIDA

CITY           SKY/WX    TMP DP  RH WIND       PRES   REMARKS
MARIANNA       PTCLDY    75  63  66 E6        30.18R
TALLAHASSEE    CLOUDY    74  63  68 E12       30.19R
PERRY          CLOUDY    72  62  71 NE3       30.20S
LIVE OAK       MOCLDY    72  68  88 NE5       30.22S
CROSS CITY     PTCLDY    72  64  75 NE5       30.23R
LAKE CITY      CLOUDY    70  66  88 NE3       30.21S
GAINESVILLE    MOCLDY    71  67  87 NE6       30.22R
WILLISTON      CLEAR     75  70  83 NE5       30.18S
PALATKA        CLOUDY    73  73 100 E5        30.20R
MAYPORT NAS    CLOUDY    79  71  76 E15       30.20
JACKSONVILLE   MOCLDY    72  68  87 N6        30.20S
JAX NAS        MOCLDY    78  70  76 E8        30.20F
JAX CECIL      NOT AVBL
ST AUGUSTINE   CLOUDY    74  70  87 SE25G31   30.21S
PALM COAST     CLOUDY    75  71  87 NE12      30.19S

STATION/POSITION SKY/WX   TEMP    WIND        PRES    WAVE   SWELL
                          AIR SEA DIR/SP/G            HT/PER HT/PER
                          (F)     (DEG/KT/KT) (MB)    (FT/S) (FT/S)
SHELL POINT      NOT AVBL
KEATON BEACH               72      60/  6/  9 1021.6R
CEDAR KEY                  75      60/ 10/ 12 1021.4S
FERNANDINA                 78 76   70/  5/  8 1023.9R
30.7N   81.3W                 77                N/A     4/ 6
MAYPORT                    78 77   90/ 10/ 14 1023.3R
31.4N   80.9W              78 77   90/ 10/ 12 1023.7R   4/ 5   3/ 5
ST AUGUSTINE               75 78   90/ 14/ 15 1023.0R

$$
FLZ040-043>046-052-053-057-058-063-144-220400-
INTERIOR CENTRAL FLORIDA

CITY           SKY/WX    TMP DP  RH WIND       PRES   REMARKS
OCALA          MOCLDY    73  70  90 NE6       30.19R
THE VILLAGES     N/A     73  70  88 CALM      30.09R
LEESBURG       CLOUDY    76  72  87 E6        30.19R
SANFORD        MOCLDY    75  68  78 E9        30.17R
ORLANDO INTL   MOCLDY    74  72  93 NE10      30.17R
KISSIMMEE      PTCLDY    76  71  85 NE6       30.17R
WINTER HAVEN     N/A    N/A N/A N/A MISG      30.17R
BARTOW         FAIR      73  70  88 NE8       30.16R
SEBRING        FAIR      75  69  82 E7        30.14R
OKEECHOBEE     PTCLDY    73  72  94 E3        30.13R

$$
FLZ041-047-054-059-064-141-147-220400-
EAST CENTRAL FLORIDA

CITY           SKY/WX    TMP DP  RH WIND       PRES   REMARKS
DAYTONA BEACH  LGT RAIN  74  74 100 CALM      30.18S
DELAND         MOCLDY    75  70  83 E10       30.18R
JFK SPACE CTR  PTCLDY    78  74  88 E9        30.16R
CAPE CANAVERAL PTCLDY    79  71  77 E13       30.15R
PATRICK AFB    PTCLDY    80  73  77 E14       30.15R
MELBOURNE      PTCLDY    81  71  71 E14G21    30.15R
VERO BEACH     CLEAR     79  71  76 E14       30.14R
FT PIERCE      MOCLDY    80  73  79 E10       30.13R
STUART         PTCLDY    81  77  89 E13       30.14R

STATION/POSITION SKY/WX   TEMP    WIND        PRES    WAVE   SWELL
                          AIR SEA DIR/SP/G            HT/PER HT/PER
                          (F)     (DEG/KT/KT) (MB)    (FT/S) (FT/S)
28.5N   80.2W              81 83   90/ 17/ 23 1021.2R   6/ 8
TRIDENT PIER               79 80   80/  9/ 14 1022.9R
28.4N   80.5W                 80                N/A     4/ 5
27.5N   80.2W                 81                N/A     6/ 7

$$
FLZ050-056-061-142-242-148-248-149-249-151-251-155-255-
160-260-220400-
WEST CENTRAL FLORIDA

CITY           SKY/WX    TMP DP  RH WIND       PRES   REMARKS
CRYSTAL RIVER  FAIR      73  68  83 E7        30.16S
INVERNESS      FAIR      73  70  88 NE5       30.17S
BROOKSVILLE    PTCLDY    74  69  85 NE7       30.16R
CLEARWATER AIR FAIR      75  68  78 E8        30.14R
ST PETE CLEARW PTCLDY    79  70  74 E10       30.14R
TAMPA INTL     MOCLDY    78  68  71 VRB7      30.15R
TAMPA EXEC     MOCLDY    72  68  88 NE3       30.16R
PLANT CITY     MOCLDY    75  70  83 NE7       30.17S
MACDILL AFB    PTCLDY    79  68  69 VRB6      30.13S
PETER O KNIGHT CLOUDY    75  70  83 E9        30.15R
ST PETERSBURG  PTCLDY    79  70  74 E16       30.13R
SARASOTA       MOCLDY    75  69  81 E9        30.12R
VENICE         FAIR      77  70  78 NE12      30.12R

STATION/POSITION SKY/WX   TEMP    WIND        PRES    WAVE   SWELL
                          AIR SEA DIR/SP/G            HT/PER HT/PER
                          (F)     (DEG/KT/KT) (MB)    (FT/S) (FT/S)
CLEARWATER BEACH           78 78   80/  9/ 12 1020.7R
MIDDLE TAMPA BAY           77     100/ 12/ 13 1020.6R
VENICE                     77 81   60/  9/ 12 1019.7R

$$
FLZ066-069-070-075>078-162-262-165-265-220400-
SOUTHWEST FLORIDA AND KEYS

CITY           SKY/WX    TMP DP  RH WIND       PRES   REMARKS
PUNTA GORDA    MOCLDY    76  69  79 NE8       30.13R
FT MYERS       CLOUDY    74  71  91 E8        30.10R
SOUTHWEST INTL CLOUDY    77  75  93 NE8       30.10R
NAPLES         CLOUDY    78  74  87 E10       30.08S
MARCO ISLAND     N/A     78  74  87 NE8       30.09F
IMMOKALEE      MOCLDY    77  73  88 E7        30.12S
MARATHON       CLOUDY    82  73  74 E14G22    30.05S
KEY WEST NAS   LGT RAIN  80  80 100 MISG      30.04F
KEY WEST INTL  CLOUDY    80  75  84 E10G20    30.05S

STATION/POSITION SKY/WX   TEMP    WIND        PRES    WAVE   SWELL
                          AIR SEA DIR/SP/G            HT/PER HT/PER
                          (F)     (DEG/KT/KT) (MB)    (FT/S) (FT/S)
NAPLES                        81   60/  5/ 10 1018.7R
DRY TORTUGAS               81     100/ 19/ 20 1017.1R
SAND KEY                   82                 1017.7F
MOLASSES REEF              82 83  120/ 15/ 16 1018.4R

$$
FLZ067-068-071>074-168-172>174-220400-
SOUTHEAST FLORIDA

CITY           SKY/WX    TMP DP  RH WIND       PRES   REMARKS
W PALM BEACH   CLOUDY    81  75  82 E13       30.12R
BOCA RATON     MOCLDY    81  75  83 E14       30.11R
FT LAUDER-EXEC CLOUDY    82  74  76 E15       30.10R
FT LAUDERDALE  CLOUDY    80  77  90 E12       30.09R
POMPANO BEACH  CLOUDY    83 N/A N/A E13       30.10R
PEMBROKE PINES MOCLDY    81  76  84 E9        30.11R
OPA LOCKA      CLOUDY    80  76  87 E9        30.10R
MIAMI          CLOUDY    83  75  77 E15       30.09R
WEST KENDALL   CLOUDY    80  75  84 E12       30.08S
HOMESTEAD      MOCLDY    82  78  89 E10       30.07S

STATION/POSITION SKY/WX   TEMP    WIND        PRES    WAVE   SWELL
                          AIR SEA DIR/SP/G            HT/PER HT/PER
                          (F)     (DEG/KT/KT) (MB)    (FT/S) (FT/S)
PORT EVERGLADES            82      80/ 10/ 13 1019.2R
VIRGINIA KEY               82 83   80/ 15/ 20 1018.5R
LAKE WORTH                 81 81   90/ 16/ 19 1020.7R
FOWEY ROCKS                82 83   80/ 20/ 21 1019.2R
SETTLEMENT POINT           81      90/ 11/ 13 1020.1R

$$





USA.gov is the U.S. government's official web portal to all federal, state and local government web resources and services.